GW2929 Weather Reports


time (UTC)temp
F
wind
direction
speed
knots
gust
knots
rain 1hr
in
rain 24hr
in
rain mn
in
humidity
%
barometer
mb
20260510164411 83 42 0.9 2.6 0.00 0.00 0.00 87 1008.1
20260510163911 83 27 1.7 1.7 0.00 0.00 0.00 87 1008.0
20260510163407 84 13 3.5 3.5 0.00 0.00 0.00 85 1008.1
20260510162901 84 209 1.7 1.7 0.00 0.00 0.00 84 1008.1
20260510162359 84 207 1.7 1.7 0.00 0.00 0.00 84 1007.8
20260510161854 84 340 1.7 1.7 0.00 0.00 0.00 85 1008.1
20260510161350 84 217 0.9 1.7 0.00 0.00 0.00 83 1007.9
20260510160848 84 22 0.9 2.6 0.00 0.00 0.00 82 1007.9
20260510160344 85 198 0.9 0.9 0.00 0.00 0.00 82 1007.8
20260510155838 84 189 1.7 1.7 0.00 0.00 0.00 84 1007.9
20260510155336 83 187 1.7 1.7 0.00 0.00 0.00 84 1008.0
20260510154831 84 208 0.0 0.9 0.00 0.00 0.00 84 1007.8
20260510154327 84 200 0.9 0.9 0.00 0.00 0.00 84 1008.0
20260510153822 84 88 1.7 1.7 0.00 0.00 0.00 84 1007.7
20260510153318 83 293 1.7 2.6 0.00 0.00 0.00 84 1007.7
20260510152815 84 287 1.7 2.6 0.00 0.00 0.00 83 1007.8
20260510152312 83 199 0.0 0.9 0.00 0.00 0.00 85 1007.7
20260510151809 82 193 1.7 2.6 0.00 0.00 0.00 85 1007.8
20260510151307 82 182 0.9 1.7 0.00 0.00 0.00 86 1007.5
20260510150802 83 202 0.0 0.0 0.00 0.00 0.00 86 1007.6
20260510150258 82 215 0.0 0.9 0.00 0.00 0.00 86 1007.5
20260510145754 83 164 0.9 1.7 0.00 0.00 0.00 86 1007.6
20260510145251 83 210 0.0 0.9 0.00 0.00 0.00 85 1007.3
20260510144747 83 198 0.9 1.7 0.00 0.00 0.00 85 1007.1
20260510144243 82 193 0.9 0.9 0.00 0.00 0.00 86 1007.3
20260510143738 82 191 0.9 0.9 0.00 0.00 0.00 88 1007.2
20260510143234 82 201 0.0 0.9 0.00 0.00 0.00 87 1007.3
20260510142731 82 199 0.9 1.7 0.00 0.00 0.00 88 1007.2
20260510142228 80 107 0.9 1.7 0.00 0.00 0.00 91 1007.0
20260510141725 81 182 1.7 2.6 0.00 0.00 0.00 90 1007.0
20260510141223 82 214 0.0 0.9 0.00 0.00 0.00 90 1006.9
20260510140719 80 198 0.9 0.9 0.00 0.00 0.00 92 1006.9
20260510140214 80 195 0.9 0.9 0.00 0.00 0.00 92 1006.8
20260510135709 79 207 0.0 0.0 0.00 0.00 0.00 93 1006.9
20260510135205 79 157 1.7 1.7 0.00 0.00 0.00 93 1007.1
20260510134702 79 190 1.7 2.6 0.00 0.00 0.00 93 1006.8
20260510134200 79 192 0.9 0.9 0.00 0.00 0.00 92 1006.7
20260510133655 80 194 1.7 1.7 0.00 0.00 0.00 91 1006.9
20260510133151 79 212 0.0 0.9 0.00 0.00 0.00 93 1007.0
20260510132647 79 202 0.9 0.9 0.00 0.00 0.00 95 1007.0
20260510132145 78 192 0.0 0.0 0.00 0.00 0.00 96 1006.6
20260510131642 78 204 0.9 1.7 0.00 0.00 0.00 97 1006.7
20260510131139 78 207 0.0 0.0 0.00 0.00 0.00 98 1006.7
20260510130636 77 177 0.0 0.0 0.00 0.00 0.00 98 1006.5
20260510130133 77 165 0.9 1.7 0.00 0.00 0.00 99 1006.4
20260510125629 77 164 0.9 1.7 0.00 0.00 0.00 99 1006.4
20260510125126 77 202 0.0 0.0 0.00 0.00 0.00 99 1006.6
20260510124623 77 202 0.0 0.0 0.00 0.00 0.00 99 1006.7
20260510124120 77 203 0.0 0.0 0.00 0.00 0.00 99 1006.4
20260510123615 76 201 0.0 0.0 0.00 0.00 0.00 99 1006.5
20260510123111 76 208 0.0 0.0 0.00 0.00 0.00 99 1006.5
20260510122607 76 209 0.0 0.0 0.00 0.00 0.00 99 1006.3
20260510122103 76 208 0.0 0.0 0.00 0.00 0.00 99 1006.5
20260510121601 76 198 0.0 0.0 0.00 0.00 0.00 99 1006.3
20260510121057 76 214 0.0 0.0 0.00 0.00 0.00 99 1006.1
20260510120555 76 217 0.0 0.0 0.00 0.00 0.00 99 1006.3
20260510120050 76 240 0.0 0.0 0.00 0.00 0.00 99 1006.4
20260510115547 76 277 0.0 0.0 0.00 0.00 0.00 99 1006.0
20260510115045 75 308 0.0 0.0 0.00 0.00 0.00 99 1006.3
20260510114540 75 318 0.0 0.0 0.00 0.00 0.00 99 1005.9
20260510114036 75 318 0.0 0.0 0.00 0.00 0.00 99 1005.9
20260510113531 75 312 0.0 0.0 0.00 0.00 0.00 99 1005.9
20260510113030 75 302 0.0 0.0 0.00 0.00 0.00 99 1005.8
20260510112526 75 284 0.0 0.0 0.00 0.00 0.00 99 1006.0
20260510112022 75 258 0.0 0.0 0.00 0.00 0.00 99 1005.9
20260510111519 75 241 0.0 0.0 0.00 0.00 0.00 99 1005.9
20260510111015 75 233 0.0 0.0 0.00 0.00 0.00 99 1005.7
20260510110511 76 224 0.0 0.0 0.00 0.00 0.00 99 1006.0
20260510110008 76 216 0.0 0.0 0.00 0.00 0.00 99 1005.8
20260510105503 76 208 0.0 0.0 0.00 0.00 0.00 99 1006.1
20260510104958 76 214 0.0 0.0 0.00 0.00 0.00 99 1006.0
20260510104455 76 217 0.0 0.0 0.00 0.00 0.00 99 1005.8
20260510103951 76 218 0.0 0.0 0.00 0.00 0.00 99 1005.9
20260510103449 76 217 0.0 0.0 0.00 0.00 0.00 99 1005.7
20260510102944 75 216 0.0 0.0 0.00 0.00 0.00 99 1005.7
20260510102440 75 216 0.0 0.0 0.00 0.00 0.00 99 1005.6
20260510101937 75 216 0.0 0.0 0.00 0.00 0.00 99 1005.7
20260510101435 75 186 0.0 0.0 0.00 0.00 0.00 99 1005.8
20260510100933 75 207 0.0 0.0 0.00 0.00 0.00 99 1005.7
20260510100429 75 209 0.0 0.0 0.00 0.00 0.00 99 1005.9
20260510095925 75 206 0.0 0.0 0.00 0.00 0.00 99 1005.8
20260510095421 75 209 0.0 0.0 0.00 0.00 0.00 99 1005.8
20260510094920 75 208 0.0 0.0 0.00 0.00 0.00 99 1005.7
20260510094415 75 213 0.0 0.0 0.00 0.00 0.00 99 1006.0
20260510093911 75 205 0.0 0.0 0.00 0.00 0.00 99 1005.8
20260510093407 75 204 0.0 0.0 0.00 0.00 0.00 99 1005.7
20260510092904 75 208 0.0 0.0 0.00 0.00 0.00 99 1005.7
20260510092401 75 208 0.0 0.0 0.00 0.00 0.00 99 1005.5
20260510091855 75 208 0.0 0.0 0.00 0.00 0.00 99 1005.6
20260510091353 75 208 0.0 0.0 0.00 0.00 0.00 99 1005.7
20260510090849 76 209 0.0 0.0 0.00 0.00 0.00 99 1005.6
20260510090346 76 206 0.0 0.0 0.00 0.00 0.00 99 1005.4
20260510085841 76 210 0.0 0.0 0.00 0.00 0.00 99 1005.7
20260510085336 76 208 0.0 0.0 0.00 0.00 0.00 99 1005.8
20260510084832 76 207 0.0 0.0 0.00 0.00 0.00 99 1005.7
20260510084330 76 212 0.0 0.0 0.00 0.00 0.00 99 1005.7
20260510083826 76 228 0.9 0.9 0.00 0.00 0.00 99 1005.6
20260510083323 76 206 0.0 0.0 0.00 0.00 0.00 99 1005.6
20260510082818 76 221 0.0 0.0 0.00 0.00 0.00 99 1005.7
20260510082316 76 206 0.0 0.0 0.00 0.00 0.00 99 1005.5
20260510081815 76 208 0.0 0.0 0.00 0.00 0.00 99 1005.8
20260510081311 76 201 0.0 0.0 0.00 0.00 0.00 99 1005.7
20260510080807 76 202 0.0 0.0 0.00 0.00 0.00 99 1005.7
20260510080302 76 201 0.0 0.0 0.00 0.00 0.00 99 1005.7
20260510075759 76 201 0.0 0.0 0.00 0.00 0.00 99 1005.9
20260510075256 76 206 0.0 0.0 0.00 0.00 0.00 99 1005.9
20260510074753 76 202 0.0 0.0 0.00 0.00 0.00 98 1005.7
20260510074250 76 203 0.0 0.0 0.00 0.00 0.00 98 1005.9
20260510073746 76 201 0.0 0.0 0.00 0.00 0.00 98 1005.9
20260510073242 76 197 1.7 2.6 0.00 0.00 0.00 98 1005.8
20260510072737 76 199 0.0 0.0 0.00 0.00 0.00 98 1006.0
20260510072235 76 203 0.0 0.0 0.00 0.00 0.00 97 1006.0
20260510071731 76 205 0.0 0.0 0.00 0.00 0.00 97 1005.9
20260510071228 76 176 0.9 1.7 0.00 0.00 0.00 97 1005.9
20260510070726 76 192 0.9 0.9 0.00 0.00 0.00 97 1005.8
20260510070223 76 199 0.0 0.0 0.00 0.00 0.00 97 1005.9
20260510065718 76 202 0.0 0.0 0.00 0.00 0.00 97 1006.0
20260510065215 76 198 0.0 0.9 0.00 0.00 0.00 97 1006.0
20260510064711 76 199 0.9 0.9 0.00 0.00 0.00 96 1006.0
20260510064209 76 202 0.0 0.0 0.00 0.00 0.00 96 1006.3
20260510063705 76 208 0.0 0.0 0.00 0.00 0.00 96 1006.2
20260510063201 76 198 0.0 0.9 0.00 0.00 0.00 96 1006.2
20260510062658 76 203 0.0 0.0 0.00 0.00 0.00 96 1006.4
20260510062154 76 205 0.0 0.9 0.00 0.00 0.00 96 1006.2
20260510061649 76 190 0.9 0.9 0.00 0.00 0.00 96 1006.4
20260510061147 76 208 0.0 0.0 0.00 0.00 0.00 96 1006.3
20260510060643 76 203 0.0 0.0 0.00 0.00 0.00 95 1006.5
20260510060140 76 208 0.0 0.0 0.00 0.00 0.00 95 1006.2
20260510055636 76 213 0.0 0.0 0.00 0.00 0.00 95 1006.2
20260510055134 76 204 0.0 0.0 0.00 0.00 0.00 95 1006.3
20260510054630 76 200 0.0 0.0 0.00 0.00 0.00 94 1006.2
20260510054125 76 205 0.0 0.0 0.00 0.00 0.00 94 1006.1
20260510053625 76 281 1.7 1.7 0.00 0.00 0.00 94 1006.3
20260510053121 76 215 0.0 0.0 0.00 0.00 0.00 94 1005.9
20260510052617 76 189 0.0 0.9 0.00 0.00 0.00 94 1005.9
20260510052114 76 192 0.0 0.0 0.00 0.00 0.00 94 1005.8
20260510051609 76 198 0.0 0.0 0.00 0.00 0.00 94 1005.7
20260510051107 77 189 0.0 0.0 0.00 0.00 0.00 94 1005.6
20260510050604 77 194 0.0 0.0 0.00 0.00 0.00 93 1005.8
20260510050101 77 186 0.9 0.9 0.00 0.00 0.00 93 1005.5
20260510045558 77 206 0.9 0.9 0.00 0.00 0.00 92 1005.7
20260510045054 77 193 1.7 2.6 0.00 0.00 0.00 92 1005.3
20260510044550 77 146 1.7 1.7 0.00 0.00 0.00 92 1005.2
20260510044048 77 174 0.9 0.9 0.00 0.00 0.00 92 1005.5
20260510043543 77 192 0.9 0.9 0.00 0.00 0.00 91 1005.3
20260510043039 77 197 0.0 0.0 0.00 0.00 0.00 91 1005.5
20260510042533 77 186 0.0 0.0 0.00 0.00 0.00 91 1005.3
20260510042028 77 194 1.7 1.7 0.00 0.00 0.00 91 1005.6
20260510041526 77 175 0.9 0.9 0.00 0.00 0.00 91 1005.5
20260510041023 77 200 0.0 0.0 0.00 0.00 0.00 90 1005.8
20260510040520 77 201 0.0 0.9 0.00 0.00 0.00 90 1005.6
20260510040015 77 195 0.0 0.9 0.00 0.00 0.00 89 1005.6
20260510035512 77 193 0.0 0.0 0.00 0.00 0.00 89 1005.6
20260510035011 77 193 0.9 1.7 0.00 0.00 0.00 88 1005.5
20260510034510 77 194 0.0 0.0 0.00 0.00 0.00 88 1005.4
20260510034006 77 164 1.7 2.6 0.00 0.00 0.00 87 1005.4
20260510033502 77 190 0.0 0.9 0.00 0.00 0.00 87 1005.5
20260510033000 77 191 0.0 0.0 0.00 0.00 0.00 86 1005.4
20260510032456 77 189 0.0 0.9 0.00 0.00 0.00 86 1005.5
20260510031951 78 168 0.9 2.6 0.00 0.00 0.00 85 1005.5
20260510031447 78 180 0.9 0.9 0.00 0.00 0.00 85 1005.1
20260510030943 78 194 0.0 0.0 0.00 0.00 0.00 84 1005.1
20260510030438 78 184 0.9 1.7 0.00 0.00 0.00 84 1005.3
20260510025936 78 202 0.0 0.0 0.00 0.00 0.00 83 1004.9
20260510025433 78 190 0.9 1.7 0.00 0.00 0.00 83 1004.8
20260510024930 78 198 0.0 0.9 0.00 0.00 0.00 83 1004.9
20260510024427 78 195 0.0 0.0 0.00 0.00 0.00 83 1004.6
20260510023923 78 166 1.7 1.7 0.00 0.00 0.00 83 1004.8
20260510023419 78 199 0.0 0.0 0.00 0.00 0.00 82 1004.5
20260510022917 78 202 0.0 0.0 0.00 0.00 0.00 82 1004.5
20260510022415 78 180 0.9 0.9 0.00 0.00 0.00 81 1004.3
20260510021914 78 197 0.0 0.9 0.00 0.00 0.00 80 1004.3
20260510021413 79 203 0.0 0.0 0.00 0.00 0.00 79 1004.3
20260510020909 79 78 1.7 1.7 0.00 0.00 0.00 78 1004.4
20260510020404 79 179 0.9 1.7 0.00 0.00 0.00 77 1004.1
20260510015900 79 190 0.0 0.0 0.00 0.00 0.00 75 1004.0
20260510015356 80 185 0.9 1.7 0.00 0.00 0.00 73 1004.0
20260510014851 80 224 0.9 1.7 0.00 0.00 0.00 72 1004.1
20260510014349 80 191 0.9 0.9 0.00 0.00 0.00 71 1003.9
20260510013845 80 181 0.9 0.9 0.00 0.00 0.00 71 1003.9
20260510013340 80 199 0.0 0.9 0.00 0.00 0.00 71 1003.8
20260510012835 80 186 1.7 1.7 0.00 0.00 0.00 71 1003.7
20260510012330 81 92 0.9 2.6 0.00 0.00 0.00 71 1003.7
20260510011825 81 204 0.9 0.9 0.00 0.00 0.00 70 1003.7
20260510011321 81 188 0.0 0.9 0.00 0.00 0.00 68 1003.9
20260510010817 82 196 0.0 0.9 0.00 0.00 0.00 68 1003.8
20260510010315 82 205 0.0 0.9 0.00 0.00 0.00 68 1003.6
20260510005811 82 205 0.0 0.0 0.00 0.00 0.00 68 1004.0
20260510005307 82 215 0.0 0.9 0.00 0.00 0.00 67 1004.0
20260510004805 83 194 0.9 0.9 0.00 0.00 0.00 66 1004.0
20260510004303 83 196 0.9 0.9 0.00 0.00 0.00 65 1003.9
20260510003800 83 191 0.0 0.9 0.00 0.00 0.00 64 1003.8
20260510003257 83 235 0.9 1.7 0.00 0.00 0.00 64 1003.8
20260510002755 83 192 0.9 2.6 0.00 0.00 0.00 63 1003.8
20260510002253 84 184 1.7 2.6 0.00 0.00 0.00 63 1003.7
20260510001749 84 194 0.9 0.9 0.00 0.00 0.00 64 1003.9
20260510001248 84 200 0.0 0.9 0.00 0.00 0.00 64 1003.5
20260510000743 84 125 0.9 1.7 0.00 0.00 0.00 63 1003.8
20260510000241 84 198 0.9 0.9 0.00 0.00 0.00 64 1003.8
20260509235738 84 216 1.7 3.5 0.00 0.00 0.00 63 1003.9
20260509235234 84 147 2.6 3.5 0.00 0.00 0.00 65 1003.7
20260509234730 84 166 1.7 2.6 0.00 0.00 0.00 64 1003.7
20260509234227 84 175 1.7 1.7 0.00 0.00 0.00 63 1003.8
20260509233725 84 194 0.9 1.7 0.00 0.00 0.00 61 1003.8
20260509233223 85 209 0.9 1.7 0.00 0.00 0.00 62 1003.7
20260509232718 85 189 1.7 2.6 0.00 0.00 0.00 61 1003.6
20260509232216 86 174 0.9 0.9 0.00 0.00 0.00 62 1003.9
20260509231712 86 205 1.7 2.6 0.00 0.00 0.00 62 1003.9
20260509231209 85 193 1.7 2.6 0.00 0.00 0.00 60 1003.9
20260509230707 85 200 0.9 1.7 0.00 0.00 0.00 61 1004.0
20260509230203 85 203 1.7 2.6 0.00 0.00 0.00 60 1003.8
20260509225659 86 297 3.5 5.2 0.00 0.00 0.00 61 1004.0
20260509225155 86 201 3.5 6.1 0.00 0.00 0.00 59 1004.0
20260509224651 87 200 1.7 1.7 0.00 0.00 0.00 59 1004.0
20260509224148 87 188 0.9 1.7 0.00 0.00 0.00 60 1004.0
20260509223644 87 262 0.9 1.7 0.00 0.00 0.00 61 1003.8
20260509223142 87 192 1.7 1.7 0.00 0.00 0.00 60 1004.0
20260509222639 87 192 0.9 1.7 0.00 0.00 0.00 61 1003.7
20260509222134 88 207 0.9 1.7 0.00 0.00 0.00 61 1003.9
20260509221630 87 199 0.0 0.9 0.00 0.00 0.00 62 1003.8
20260509221126 88 189 2.6 3.5 0.00 0.00 0.00 60 1003.9
20260509220622 89 189 1.7 1.7 0.00 0.00 0.00 58 1003.8
20260509220119 88 260 1.7 2.6 0.00 0.00 0.00 58 1003.9
20260509215614 88 182 0.9 1.7 0.00 0.00 0.00 59 1003.8
20260509215106 89 20 2.6 6.1 0.00 0.00 0.00 57 1003.6
20260509214603 90 208 0.0 0.9 0.00 0.00 0.00 56 1003.7
20260509214100 90 355 1.7 1.7 0.00 0.00 0.00 56 1003.7
20260509213555 90 216 0.9 1.7 0.00 0.00 0.00 55 1003.6
20260509213052 90 208 0.9 0.9 0.00 0.00 0.00 55 1004.0
20260509212550 90 143 1.7 3.5 0.00 0.00 0.00 53 1003.9
20260509212046 90 307 1.7 3.5 0.00 0.00 0.00 55 1003.9
20260509211542 90 95 0.9 0.9 0.00 0.00 0.00 56 1004.0
20260509211039 89 188 0.9 1.7 0.00 0.00 0.00 58 1003.7
20260509210535 90 273 0.9 1.7 0.00 0.00 0.00 56 1003.8
20260509210031 89 250 1.7 2.6 0.00 0.00 0.00 56 1003.8
20260509205526 90 215 0.9 0.9 0.00 0.00 0.00 57 1004.1
20260509205022 89 175 2.6 5.2 0.00 0.00 0.00 57 1004.1
20260509204519 90 97 0.9 1.7 0.00 0.00 0.00 57 1004.0
20260509204015 89 96 2.6 5.2 0.00 0.00 0.00 57 1004.0
20260509203511 90 186 2.6 3.5 0.00 0.00 0.00 57 1004.1
20260509203009 89 306 1.7 2.6 0.00 0.00 0.00 57 1003.9
20260509202503 87 33 3.5 6.1 0.00 0.00 0.00 59 1004.0
20260509201959 88 231 1.7 1.7 0.00 0.00 0.00 60 1004.2
20260509201454 89 261 1.7 2.6 0.00 0.00 0.00 59 1004.0
20260509200952 89 54 0.9 1.7 0.00 0.00 0.00 61 1004.3
20260509200447 89 227 0.9 0.9 0.00 0.00 0.00 61 1004.2
20260509195943 88 217 0.0 0.0 0.00 0.00 0.00 62 1004.2
20260509195439 89 356 3.5 5.2 0.00 0.00 0.00 60 1004.1
20260509194938 88 10 1.7 2.6 0.00 0.00 0.00 61 1004.2
20260509194434 89 201 0.0 1.7 0.00 0.00 0.00 61 1004.4
20260509193931 88 257 2.6 2.6 0.00 0.00 0.00 63 1004.4
20260509193431 88 356 1.7 2.6 0.00 0.00 0.00 63 1004.5
20260509192927 89 59 1.7 1.7 0.00 0.00 0.00 63 1004.4
20260509192424 88 9 1.7 2.6 0.00 0.00 0.00 65 1004.5
20260509191919 88 263 0.9 0.9 0.00 0.00 0.00 64 1004.4
20260509191415 88 326 1.7 2.6 0.00 0.00 0.00 64 1004.3
20260509190911 89 339 1.7 3.5 0.00 0.00 0.00 63 1004.2
20260509190408 89 252 0.9 1.7 0.00 0.00 0.00 65 1004.2
20260509185906 89 233 0.9 1.7 0.00 0.00 0.00 64 1004.4
20260509185403 88 241 0.9 1.7 0.00 0.00 0.00 64 1004.1
20260509184859 89 272 2.6 3.5 0.00 0.00 0.00 63 1004.3
20260509184356 88 209 0.0 0.9 0.00 0.00 0.00 65 1004.3
20260509183854 89 220 0.0 0.0 0.00 0.00 0.00 64 1004.4
20260509183348 90 266 3.5 3.5 0.00 0.00 0.00 62 1004.4
20260509182844 90 247 0.9 1.7 0.00 0.00 0.00 61 1004.3
20260509182342 89 229 0.0 0.0 0.00 0.00 0.00 64 1004.2
20260509181839 89 197 2.6 2.6 0.00 0.00 0.00 62 1004.3
20260509181336 89 200 0.0 0.9 0.00 0.00 0.00 59 1004.3
20260509180833 88 234 0.9 0.9 0.00 0.00 0.00 62 1004.5
20260509180329 89 235 0.0 0.9 0.00 0.00 0.00 62 1004.7
20260509175826 88 219 0.9 0.9 0.00 0.00 0.00 64 1004.5
20260509175322 88 233 0.0 0.0 0.00 0.00 0.00 65 1004.7
20260509174818 88 227 0.9 0.9 0.00 0.00 0.00 64 1004.8
20260509174314 88 237 0.9 0.9 0.00 0.00 0.00 64 1004.8
20260509173810 88 236 0.9 0.9 0.00 0.00 0.00 63 1004.8
20260509173306 87 229 0.0 0.0 0.00 0.00 0.00 63 1004.8
20260509172802 86 252 1.7 2.6 0.00 0.00 0.00 65 1004.9
20260509172259 85 228 0.0 0.0 0.00 0.00 0.00 67 1005.0
20260509171755 86 212 0.9 1.7 0.00 0.00 0.00 68 1005.1
20260509171251 86 205 0.9 0.9 0.00 0.00 0.00 69 1005.0
20260509170747 86 204 0.0 0.9 0.00 0.00 0.00 67 1005.0
20260509170243 86 207 0.0 0.0 0.00 0.00 0.00 65 1005.3
20260509165742 86 189 1.7 1.7 0.00 0.00 0.00 66 1005.3
20260509165238 86 209 0.0 0.9 0.00 0.00 0.00 68 1005.2
20260509164734 84 212 0.9 0.9 0.00 0.00 0.00 71 1005.4